Powrót do katalogu

FENGYUN 1C DEB

AktywnyPO
NORAD 32176·DEBRIS·🇨🇳 China

Wystrzelony May 10, 1999 z Taiyuan Satellite Launch Center

Loading…

Następne Przeloty (najbliższe 24 godziny)

TLE

ŚwieżeSource: Space-Track

Epoka: Sep 13, 2026, 10:57 UTC

1 32176U 99025CTW 26256.45683869  .00020153  00000-0  17243-2 0  9994
2 32176  99.3796 344.1174 0023329 244.3464 115.5343 14.97446039655740

Śledź FENGYUN 1C DEB w czasie rzeczywistym z AllMySat

Download on the App Store